Weather past 2 weeks in Saipan, Northern Mariana Islands

Now
75 °F

Sunny.


Feels Like: 74 °F
Forecast: 73 / 80 °F
Wind: 7 mph from East

Location: Saipan International Airport

Current Time: Jan 28, 2015 at 7:41:24 AM

Latest Report: Jan 28, 2015 at 6:54 AM


Visibility: 10 mi

Pressure: 29.93 "Hg

Humidity: 93%

Dew point: 73 °F

Location of SaipanLocation

Historic Weather in Saipan — Graph

°F

Saipan temperature yesterday

Maximum temperature yesterday: 91 °F (at 5:54 AM)
Minimum temperature yesterday: 77 °F (at 10:54 PM)
Average temperature yesterday: 82 °F

Past Weeks' High & Low Weather Summary

 TemperatureHumidityPressure
High99 °F (Jan 24, 12:17 PM)100% (Jan 18, 4:54 AM)30.08 "Hg (Jan 18, 4:54 AM)
Low74 °F (Jan 19, 12:54 AM)47% (Jan 24, 12:17 PM)29.83 "Hg (Jan 13, 2:02 PM)
Average81 °F81%29.97 "Hg
* Reported Jan 13 5:54 AM — Jan 28 5:54 AM, Saipan, Weather by CustomWeather, © 2014

Note: Actual official high and low records may vary slightly from our data, if they occured in-between our weather recording intervals... More about our weather records

Advertising

Saipan weather history for previous 24 hours

 ConditionsComfort  
Time TempWeatherWind HumidityBarometerVisibility
5:54 AM
Jan 28
75 °FPassing clouds.5 mph93%29.90 "Hg10 mi
4:54 AM75 °FPassing clouds.7 mph93%29.89 "Hg10 mi
3:54 AM77 °FPassing clouds.8 mph88%29.88 "Hg10 mi
2:54 AM77 °FPassing clouds.6 mph88%29.88 "Hg10 mi
1:54 AM77 °FPassing clouds.6 mph88%29.91 "Hg10 mi
12:54 AM79 °FPassing clouds.6 mph82%29.93 "Hg10 mi
11:54 PM
Jan 27
77 °FPassing clouds.7 mph88%29.93 "Hg10 mi
10:54 PM77 °FPartly cloudy.7 mph85%29.93 "Hg10 mi
9:54 PM79 °FClear.5 mph82%29.94 "Hg10 mi
8:54 PM79 °FPassing clouds.7 mph82%29.94 "Hg10 mi
7:54 PM79 °FPassing clouds.6 mph82%29.93 "Hg10 mi
7:04 PM79 °FPassing clouds.5 mph84%29.85 "Hg10 mi
6:54 PM81 °FOvercast.5 mph78%29.90 "Hg10 mi
5:54 PM82 °FScattered clouds.3 mph73%29.88 "Hg10 mi
4:54 PM84 °FMore clouds than sun.8 mph69%29.88 "Hg10 mi
3:54 PM84 °FScattered clouds.10 mph69%29.86 "Hg10 mi
2:54 PM84 °FScattered clouds.6 mph71%29.87 "Hg10 mi
1:54 PM84 °FScattered clouds.6 mph71%29.89 "Hg10 mi
1:01 PM84 °FScattered clouds.7 mph70%29.85 "Hg10 mi
11:54 AM84 °FScattered clouds.8 mph74%29.94 "Hg10 mi
11:25 AM84 °FPartly sunny.8 mph74%29.90 "Hg10 mi
10:54 AM84 °FScattered clouds.7 mph71%29.97 "Hg10 mi
9:54 AM84 °FScattered clouds.6 mph69%29.98 "Hg10 mi
8:54 AM82 °FScattered clouds.6 mph74%29.98 "Hg10 mi
7:54 AM81 °FScattered clouds.7 mph79%29.97 "Hg10 mi
Weather by CustomWeather, © 2014

See weather overviewHow to use our weather pages